EW6606 Weather Reports


Display with metric or nautical units.
time (UTC)temp
F
wind
direction
speed
MPH
gust
MPH
rain 1hr
in
rain 24hr
in
rain mn
in
humidity
%
barometer
mb
20260508014126 63 119 0.0 2.0 0.00 0.29 0.29 82 1015.7
20260508013623 64 115 0.0 1.0 0.00 0.29 0.29 82 1015.7
20260508013120 64 132 0.0 1.0 0.00 0.29 0.29 82 1015.9
20260508012617 64 120 1.0 2.0 0.00 0.29 0.29 81 1015.6
20260508012114 64 129 0.0 1.0 0.00 0.29 0.29 81 1015.8
20260508011613 64 112 1.0 2.0 0.00 0.29 0.29 80 1015.6
20260508011109 65 104 1.0 2.0 0.00 0.29 0.29 80 1015.7
20260508010606 65 106 0.0 1.0 0.00 0.29 0.29 80 1015.7
20260508010105 65 50 0.0 1.0 0.00 0.29 0.29 80 1015.8
20260508005600 65 37 0.0 1.0 0.00 0.29 0.29 79 1015.6
20260508005057 65 129 0.0 1.0 0.00 0.29 0.29 79 1015.7
20260508004553 66 148 1.0 1.0 0.00 0.29 0.29 78 1015.3
20260508004050 66 75 0.0 1.0 0.00 0.29 0.29 78 1015.2
20260508003546 66 15 0.0 1.0 0.00 0.29 0.29 78 1015.4
20260508003044 66 25 0.0 1.0 0.00 0.29 0.29 77 1015.3
20260508002540 66 25 0.0 1.0 0.00 0.29 0.29 77 1015.3
20260508002038 66 62 0.0 1.0 0.00 0.29 0.29 77 1015.3
20260508001533 67 50 0.0 1.0 0.00 0.29 0.29 76 1015.3
20260508001029 67 62 0.0 1.0 0.00 0.29 0.29 76 1015.4
20260508000525 67 89 0.0 2.0 0.00 0.29 0.29 75 1015.3
20260508000023 67 31 2.0 2.0 0.00 0.29 0.29 75 1015.4
20260507235519 68 59 0.0 3.0 0.00 0.29 0.29 74 1015.1
20260507235017 68 34 2.0 2.0 0.00 0.29 0.29 74 1014.9
20260507234513 69 47 2.0 2.0 0.00 0.29 0.29 74 1014.8
20260507234010 69 23 1.0 2.0 0.00 0.29 0.29 76 1014.9
20260507233506 69 18 1.0 2.0 0.00 0.29 0.29 76 1015.0
20260507233005 69 81 1.0 2.0 0.00 0.29 0.29 76 1014.9
20260507232501 69 25 1.0 2.0 0.00 0.29 0.29 75 1015.0
20260507231959 69 78 0.0 1.0 0.00 0.29 0.29 75 1014.8
20260507231455 69 240 0.0 1.0 0.00 0.29 0.29 74 1014.8
20260507230952 69 61 1.0 2.0 0.00 0.29 0.29 73 1014.6
20260507230449 70 142 0.0 1.0 0.00 0.29 0.29 72 1014.6
20260507225944 70 132 0.0 2.0 0.00 0.29 0.29 71 1014.5
20260507225440 70 352 1.0 2.0 0.00 0.29 0.29 70 1014.6
20260507224937 71 278 2.0 3.0 0.00 0.29 0.29 70 1014.4
20260507224432 71 323 2.0 5.0 0.00 0.29 0.29 70 1014.4
20260507223930 71 42 1.0 2.0 0.00 0.29 0.29 71 1014.2
20260507223425 71 50 0.0 1.0 0.00 0.29 0.29 70 1014.2
20260507222922 71 64 2.0 7.0 0.00 0.29 0.29 69 1014.4
20260507222420 71 37 0.0 4.0 0.00 0.29 0.29 69 1014.2
20260507221916 71 15 2.0 6.0 0.00 0.29 0.29 71 1014.2
20260507221413 70 25 0.0 3.0 0.00 0.29 0.29 71 1014.1
20260507220908 70 106 0.0 3.0 0.00 0.29 0.29 71 1014.3
20260507220407 71 240 0.0 4.0 0.00 0.29 0.29 70 1014.3
20260507215903 71 23 0.0 3.0 0.00 0.29 0.29 69 1014.3
20260507215400 72 34 0.0 3.0 0.00 0.29 0.29 70 1014.4
20260507214857 72 41 2.0 3.0 0.00 0.29 0.29 71 1014.3
20260507214354 72 70 0.0 5.0 0.00 0.29 0.29 70 1014.3
20260507213850 72 256 3.0 5.0 0.00 0.29 0.29 70 1014.4
20260507213347 72 18 2.0 4.0 0.00 0.29 0.29 69 1014.3
20260507212844 72 230 4.0 12.0 0.00 0.29 0.29 70 1014.2
20260507212340 72 238 4.0 8.0 0.00 0.29 0.29 71 1014.1
20260507211836 71 255 3.0 7.0 0.00 0.29 0.29 71 1014.4
20260507211333 71 38 0.0 3.0 0.00 0.29 0.29 71 1014.2
20260507210830 71 39 3.0 6.0 0.00 0.29 0.29 71 1014.3
20260507210327 71 38 0.0 3.0 0.00 0.29 0.29 72 1014.1
20260507205823 70 235 3.0 6.0 0.00 0.29 0.29 73 1014.1
20260507205321 70 30 1.0 5.0 0.00 0.29 0.29 72 1014.1
20260507204816 71 275 1.0 2.0 0.00 0.29 0.29 72 1014.0
20260507204314 71 16 1.0 4.0 0.00 0.29 0.29 71 1014.2
20260507203812 72 72 1.0 3.0 0.00 0.29 0.29 71 1014.3
20260507203309 72 52 1.0 3.0 0.00 0.29 0.29 71 1014.3
20260507202805 72 69 0.0 3.0 0.00 0.29 0.29 72 1014.4
20260507202306 72 261 2.0 8.0 0.00 0.29 0.29 72 1014.6
20260507201756 71 242 1.0 4.0 0.00 0.29 0.29 74 1014.6
20260507201253 71 254 3.0 6.0 0.00 0.29 0.29 74 1014.5
20260507200750 70 276 2.0 7.0 0.00 0.29 0.29 75 1014.6
20260507200246 70 104 2.0 5.0 0.00 0.29 0.29 75 1014.6
20260507195742 70 280 3.0 5.0 0.00 0.29 0.29 75 1014.6
20260507195239 70 241 1.0 7.0 0.00 0.29 0.29 76 1014.8
20260507194737 69 230 3.0 6.0 0.00 0.29 0.29 76 1014.9
20260507194232 69 250 3.0 4.0 0.00 0.29 0.29 75 1014.6
20260507193729 69 227 1.0 6.0 0.00 0.29 0.29 76 1014.6
20260507193226 69 256 4.0 8.0 0.00 0.29 0.29 78 1014.9
20260507192722 69 333 1.0 4.0 0.00 0.29 0.29 78 1014.8
20260507192219 69 23 1.0 3.0 0.00 0.29 0.29 77 1015.0
20260507191715 69 15 0.0 10.0 0.00 0.29 0.29 80 1014.8
20260507191212 68 252 3.0 5.0 0.00 0.29 0.29 81 1014.8
20260507190709 67 185 0.0 2.0 0.00 0.29 0.29 82 1015.0
20260507190208 66 333 0.0 3.0 0.00 0.29 0.29 82 1015.2
20260507185706 66 57 0.0 2.0 0.00 0.29 0.29 81 1015.2
20260507185202 66 73 1.0 3.0 0.00 0.29 0.29 82 1015.0
20260507184700 66 17 0.0 3.0 0.00 0.29 0.29 83 1015.1
20260507184158 66 164 0.0 1.0 0.00 0.29 0.29 83 1015.1
20260507183654 65 32 2.0 2.0 0.00 0.29 0.29 84 1015.1
20260507183151 65 19 2.0 3.0 0.00 0.29 0.29 85 1015.0
20260507182648 65 35 1.0 3.0 0.00 0.29 0.29 85 1015.2
20260507182143 64 74 2.0 3.0 0.00 0.29 0.29 86 1015.4
20260507181640 64 49 0.0 2.0 0.00 0.29 0.29 85 1015.4
20260507181136 64 84 1.0 3.0 0.00 0.29 0.29 85 1015.7
20260507180633 64 66 1.0 3.0 0.00 0.29 0.29 86 1015.5
20260507180130 64 80 1.0 4.0 0.00 0.29 0.29 87 1015.7
20260507175626 64 34 1.0 2.0 0.00 0.29 0.29 88 1015.7
20260507175123 64 324 0.0 3.0 0.00 0.29 0.29 89 1015.7
20260507174620 63 15 0.0 3.0 0.00 0.29 0.29 89 1015.6
20260507174118 63 75 1.0 3.0 0.00 0.29 0.29 89 1015.5
20260507173615 63 347 2.0 3.0 0.00 0.29 0.29 90 1015.7
20260507173112 62 257 3.0 10.0 0.00 0.29 0.29 91 1015.8
20260507172608 62 269 2.0 7.0 0.00 0.29 0.29 91 1015.9
20260507172106 62 269 2.0 3.0 0.00 0.29 0.29 92 1015.9
20260507171600 62 20 2.0 3.0 0.00 0.29 0.29 92 1016.2
20260507171058 61 73 2.0 2.0 0.00 0.29 0.29 92 1016.0
20260507170555 61 26 2.0 3.0 0.00 0.29 0.29 93 1016.1
20260507170051 61 34 1.0 3.0 0.00 0.29 0.29 93 1016.2
20260507165546 60 13 1.0 4.0 0.00 0.29 0.29 93 1016.2
20260507165038 60 34 1.0 3.0 0.00 0.29 0.29 93 1016.1
20260507164534 60 234 3.0 5.0 0.00 0.29 0.29 93 1016.1
20260507164032 60 259 5.0 6.0 0.00 0.29 0.29 93 1016.3
20260507163528 60 10 1.0 5.0 0.00 0.29 0.29 93 1016.4
20260507163026 60 43 2.0 3.0 0.00 0.29 0.29 93 1016.0
20260507162521 59 153 1.0 5.0 0.00 0.29 0.29 93 1016.2
20260507162018 59 39 1.0 3.0 0.00 0.29 0.29 93 1015.9
20260507161514 59 64 2.0 3.0 0.00 0.29 0.29 93 1015.7
20260507161012 59 179 1.0 2.0 0.00 0.29 0.29 93 1015.6
20260507160507 59 50 2.0 3.0 0.00 0.29 0.29 93 1015.6
20260507160004 59 169 0.0 3.0 0.00 0.29 0.29 93 1015.7
20260507155459 59 82 0.0 5.0 0.00 0.29 0.29 93 1015.8
20260507154956 59 52 1.0 3.0 0.00 0.29 0.29 93 1015.5
20260507154453 59 322 1.0 3.0 0.00 0.29 0.29 93 1015.5
20260507153950 60 15 0.0 4.0 0.00 0.29 0.29 93 1015.7
20260507153447 60 71 2.0 4.0 0.00 0.29 0.29 93 1015.5
20260507152943 60 13 2.0 5.0 0.00 0.29 0.29 93 1015.5
20260507152439 60 42 3.0 3.0 0.00 0.29 0.29 93 1015.5
20260507151936 60 80 0.0 5.0 0.00 0.29 0.29 93 1015.5
20260507151432 60 0 0.0 3.0 0.00 0.29 0.29 93 1015.3
20260507150929 61 78 1.0 2.0 0.00 0.29 0.29 94 1015.3
20260507150426 61 76 1.0 2.0 0.00 0.29 0.29 94 1015.2
20260507145922 61 59 2.0 2.0 0.00 0.29 0.29 94 1015.0
20260507145418 61 249 2.0 5.0 0.00 0.29 0.29 94 1015.2
20260507144915 61 113 0.0 4.0 0.00 0.29 0.29 94 1015.0
20260507144412 61 44 1.0 3.0 0.00 0.29 0.29 94 1015.0
20260507143909 61 78 1.0 1.0 0.00 0.29 0.29 95 1015.0
20260507143406 61 25 0.0 3.0 0.00 0.29 0.29 95 1015.2
20260507142903 60 44 0.0 1.0 0.00 0.29 0.29 95 1015.0
20260507142359 60 63 1.0 2.0 0.00 0.29 0.29 95 1014.9
20260507141856 60 77 2.0 3.0 0.00 0.29 0.29 95 1014.9
20260507141352 60 78 1.0 2.0 0.00 0.29 0.29 95 1014.9
20260507140849 60 41 0.0 3.0 0.00 0.29 0.29 95 1014.8
20260507140346 60 110 0.0 2.0 0.00 0.29 0.29 95 1015.1
20260507135844 60 37 0.0 2.0 0.00 0.29 0.29 95 1015.2
20260507135340 59 142 0.0 3.0 0.00 0.29 0.29 95 1014.6
20260507134838 59 96 1.0 2.0 0.00 0.29 0.29 95 1014.6
20260507134333 59 26 2.0 3.0 0.00 0.29 0.29 95 1014.6
20260507133830 59 19 2.0 3.0 0.00 0.29 0.29 96 1014.6
20260507133325 59 311 0.0 3.0 0.00 0.29 0.29 95 1014.6
20260507132824 59 245 2.0 3.0 0.00 0.29 0.29 95 1014.5
20260507132320 59 57 1.0 3.0 0.00 0.29 0.29 96 1014.5
20260507131818 59 124 0.0 3.0 0.00 0.29 0.29 96 1014.5
20260507131314 59 284 0.0 2.0 0.00 0.29 0.29 95 1014.5
20260507130810 59 55 0.0 2.0 0.00 0.29 0.29 96 1014.1
20260507130308 58 237 0.0 2.0 0.00 0.29 0.29 95 1014.1
20260507125807 58 36 1.0 3.0 0.00 0.29 0.29 96 1014.3
20260507125306 59 66 0.0 2.0 0.00 0.29 0.29 96 1014.1
20260507124801 58 56 1.0 2.0 0.00 0.29 0.29 96 1013.7
20260507124257 58 15 0.0 2.0 0.00 0.29 0.29 96 1013.8
20260507123756 58 210 0.0 3.0 0.00 0.29 0.29 95 1013.6
20260507123253 58 70 1.0 4.0 0.00 0.29 0.29 95 1013.8
20260507122748 58 236 1.0 3.0 0.00 0.29 0.29 95 1013.7
20260507122244 58 47 2.0 3.0 0.00 0.29 0.29 95 1013.7
20260507121740 59 81 0.0 3.0 0.00 0.29 0.29 95 1013.7
20260507121236 59 25 0.0 3.0 0.00 0.29 0.29 96 1013.4
20260507120732 59 13 0.0 2.0 0.00 0.29 0.29 96 1013.1
20260507120230 58 34 1.0 2.0 0.02 0.29 0.29 96 1012.9
20260507115726 58 53 0.0 2.0 0.02 0.29 0.29 95 1013.0
20260507115222 58 82 2.0 2.0 0.00 0.28 0.28 95 1012.7
20260507114717 58 81 0.0 2.0 0.00 0.28 0.28 95 1012.7
20260507114215 58 57 0.0 2.0 0.00 0.28 0.28 95 1012.8
20260507113712 58 58 0.0 2.0 0.00 0.28 0.28 95 1012.6
20260507113209 58 63 1.0 2.0 0.00 0.28 0.28 95 1012.9
20260507112707 58 62 0.0 2.0 0.00 0.28 0.28 95 1012.8
20260507112203 58 81 1.0 2.0 0.00 0.28 0.28 95 1012.8
20260507111701 58 72 2.0 2.0 0.00 0.28 0.28 95 1012.8
20260507111157 58 37 2.0 3.0 0.00 0.28 0.28 95 1012.7
20260507110653 58 134 0.0 2.0 0.00 0.28 0.28 95 1012.3
20260507110151 58 34 1.0 3.0 0.00 0.28 0.28 95 1012.5
20260507105647 59 69 1.0 3.0 0.00 0.28 0.28 95 1012.7
20260507105143 59 54 1.0 2.0 0.00 0.28 0.28 95 1012.7
20260507104640 59 47 0.0 2.0 0.02 0.28 0.28 95 1012.7
20260507104136 59 42 2.0 3.0 0.02 0.28 0.28 95 1012.8
20260507103632 59 44 3.0 5.0 0.00 0.28 0.28 95 1012.5
20260507103124 59 19 0.0 5.0 0.00 0.28 0.28 95 1012.3
20260507102620 59 38 3.0 4.0 0.00 0.28 0.28 95 1012.1
20260507102116 60 37 1.0 2.0 0.00 0.28 0.28 95 1012.1
20260507101613 60 39 2.0 5.0 0.00 0.28 0.28 95 1011.8
20260507101109 60 26 1.0 5.0 0.00 0.28 0.28 95 1011.8
20260507100606 60 89 1.0 2.0 0.00 0.28 0.28 95 1011.7
20260507100104 61 77 2.0 5.0 0.00 0.28 0.28 95 1011.7
20260507095602 61 83 2.0 7.0 0.00 0.28 0.28 95 1011.4
20260507095058 61 41 2.0 4.0 0.00 0.28 0.28 95 1011.0
20260507094554 62 67 3.0 3.0 0.00 0.28 0.28 95 1011.3
20260507094052 62 28 1.0 3.0 0.00 0.28 0.28 95 1011.4
20260507093549 63 70 2.0 4.0 0.00 0.28 0.28 95 1011.5
20260507093048 64 30 0.0 5.0 0.02 0.28 0.28 95 1011.4
20260507092544 64 3 0.0 5.0 0.05 0.28 0.28 95 1011.2
20260507092040 65 9 2.0 3.0 0.02 0.28 0.28 95 1011.1
20260507091537 65 67 2.0 4.0 0.00 0.27 0.27 95 1011.0
20260507091033 65 60 1.0 3.0 0.00 0.27 0.27 95 1011.3
20260507090529 65 113 0.0 2.0 0.00 0.27 0.27 95 1011.0
20260507090026 65 67 0.0 3.0 0.00 0.27 0.27 95 1010.9
20260507085524 65 75 0.0 2.0 0.02 0.27 0.27 95 1010.9
20260507085020 65 62 1.0 2.0 0.02 0.27 0.27 95 1010.9
20260507084517 65 67 0.0 2.0 0.05 0.27 0.27 95 1010.8
20260507084014 65 109 0.0 2.0 0.07 0.27 0.27 95 1010.6
20260507083510 65 77 0.0 2.0 0.05 0.26 0.26 95 1011.0
20260507083007 65 20 2.0 3.0 0.12 0.26 0.26 95 1011.1
20260507082503 65 55 0.0 3.0 0.19 0.25 0.25 95 1010.7
20260507081959 65 82 0.0 3.0 0.12 0.23 0.23 95 1010.7
20260507081455 65 260 0.0 3.0 0.02 0.22 0.22 95 1010.9
20260507080953 65 73 0.0 2.0 0.00 0.21 0.21 95 1010.6
20260507080448 65 70 0.0 2.0 0.00 0.21 0.21 95 1010.8
20260507075944 65 62 0.0 3.0 0.00 0.21 0.21 95 1010.9
20260507075440 65 36 2.0 3.0 0.00 0.21 0.21 95 1011.0
20260507074931 65 50 1.0 2.0 0.00 0.21 0.21 95 1010.7
20260507074428 65 44 2.0 3.0 0.00 0.21 0.21 95 1010.9
20260507073926 66 130 1.0 4.0 0.00 0.21 0.21 95 1011.0
20260507073422 66 57 1.0 3.0 0.00 0.21 0.21 95 1011.0
20260507072919 66 62 0.0 3.0 0.02 0.21 0.21 95 1011.2
20260507072417 66 50 0.0 1.0 0.02 0.21 0.21 95 1011.1
20260507071915 66 55 1.0 3.0 0.07 0.21 0.21 95 1010.8
20260507071411 66 21 2.0 2.0 0.26 0.20 0.20 95 1010.8
20260507070907 66 89 1.0 2.0 0.47 0.19 0.19 95 1010.9
20260507070405 66 102 1.0 2.0 0.45 0.15 0.15 95 1010.9
20260507065901 66 275 0.0 2.0 0.47 0.11 0.11 95 1010.9
20260507065358 66 69 1.0 3.0 0.38 0.08 0.08 95 1010.7
20260507064855 66 353 2.0 3.0 0.19 0.04 0.04 95 1009.7
20260507064354 66 121 3.0 4.0 0.07 0.02 0.02 95 1009.8
20260507063851 66 119 3.0 5.0 0.02 0.00 0.00 95 1010.6
20260507063348 66 85 1.0 2.0 0.02 0.00 0.00 95 1011.8
20260507062845 66 3 0.0 1.0 0.00 0.00 0.00 95 1011.5
20260507062341 66 45 0.0 2.0 0.00 0.00 0.00 95 1011.2
20260507061839 66 61 1.0 2.0 0.00 0.00 0.00 95 1011.3
20260507061337 66 32 0.0 2.0 0.00 0.00 0.00 95 1011.6
20260507060836 66 119 0.0 2.0 0.00 0.00 0.00 95 1011.6
20260507060332 66 89 0.0 1.0 0.00 0.00 0.00 95 1011.5
20260507055829 66 122 0.0 2.0 0.00 0.00 0.00 95 1011.6
20260507055324 66 143 1.0 1.0 0.00 0.00 0.00 95 1011.7
20260507054821 66 102 1.0 2.0 0.00 0.00 0.00 94 1011.6
20260507054316 66 99 1.0 3.0 0.00 0.00 0.00 94 1011.6
20260507053814 66 95 1.0 2.0 0.00 0.00 0.00 94 1011.9
20260507053312 66 15 2.0 2.0 0.00 0.00 0.00 94 1012.2
20260507052810 66 63 1.0 2.0 0.00 0.00 0.00 94 1012.2
20260507052301 66 49 0.0 2.0 0.00 0.00 0.00 94 1012.3
20260507051759 66 67 0.0 2.0 0.00 0.00 0.00 94 1012.3
20260507051256 66 80 1.0 3.0 0.00 0.00 0.00 94 1012.1
20260507050753 66 37 1.0 2.0 0.00 0.00 0.00 94 1012.2
20260507050249 66 55 1.0 2.0 0.00 0.00 0.00 94 1012.3
20260507045746 66 230 0.0 2.0 0.00 0.69 0.69 94 1012.5
20260507045242 66 86 1.0 2.0 0.00 0.69 0.69 94 1012.1
20260507044740 66 4 0.0 2.0 0.00 0.69 0.69 94 1012.3
20260507044236 66 242 0.0 2.0 0.00 0.69 0.69 94 1012.2
20260507043732 66 0 0.0 2.0 0.00 0.69 0.69 94 1012.1
20260507043229 66 173 0.0 2.0 0.00 0.69 0.69 94 1011.9
20260507042725 66 59 2.0 3.0 0.00 0.69 0.69 94 1011.7
20260507042220 66 49 0.0 2.0 0.00 0.69 0.69 94 1012.1
20260507041718 67 39 0.0 3.0 0.00 0.69 0.69 94 1012.8
20260507041214 66 234 1.0 3.0 0.00 0.69 0.69 94 1013.0
20260507040712 66 104 0.0 3.0 0.02 0.69 0.69 94 1012.7
20260507040207 66 195 0.0 3.0 0.05 0.69 0.69 94 1013.1
20260507035704 67 23 1.0 2.0 0.05 0.68 0.68 94 1012.9
20260507035159 67 257 1.0 3.0 0.12 0.68 0.68 94 1012.9
20260507034656 67 5 0.0 4.0 0.14 0.67 0.67 94 1012.3
20260507034154 67 253 0.0 3.0 0.26 0.66 0.66 94 1011.6
20260507033653 67 10 0.0 1.0 0.57 0.65 0.65 94 1011.5
20260507033149 67 129 0.0 3.0 0.64 0.61 0.61 94 1011.7
20260507032647 67 110 0.0 2.0 0.35 0.54 0.54 94 1012.4
20260507032142 67 129 0.0 2.0 0.17 0.49 0.49 94 1012.2
20260507031639 67 107 0.0 3.0 0.12 0.47 0.47 94 1012.5
20260507031136 67 124 2.0 4.0 0.09 0.46 0.46 94 1013.1
20260507030633 67 130 0.0 1.0 0.12 0.45 0.45 94 1012.9
20260507030131 67 75 0.0 2.0 0.17 0.45 0.45 94 1012.8
20260507025628 67 79 1.0 3.0 0.19 0.43 0.43 94 1013.1
20260507025124 67 130 2.0 3.0 0.54 0.42 0.42 94 1013.3
20260507024622 68 37 2.0 3.0 0.78 0.39 0.39 93 1013.0
20260507024119 68 120 3.0 5.0 0.78 0.32 0.32 93 1012.5
20260507023615 68 89 2.0 2.0 0.40 0.24 0.24 93 1013.0
20260507023113 68 75 0.0 1.0 0.14 0.18 0.18 93 1012.8
20260507022609 68 32 2.0 2.0 0.12 0.17 0.17 93 1012.8
20260507022105 69 25 1.0 2.0 0.02 0.16 0.16 93 1012.7
20260507021601 69 27 2.0 3.0 0.00 0.15 0.15 93 1012.6
20260507021057 69 61 1.0 2.0 0.00 0.15 0.15 93 1012.7
20260507020556 69 35 2.0 3.0 0.00 0.15 0.15 93 1012.3
20260507020051 70 28 2.0 3.0 0.00 0.15 0.15 93 1012.2
20260507015550 70 72 2.0 3.0 0.00 0.15 0.15 93 1012.1
20260507015047 71 37 3.0 4.0 0.00 0.15 0.15 93 1012.0